Location: Cheyres
(46.8153°N, 6.7877°E)
Time: 04:23:23
(UTC+00:00)

Spot 2 Rocket - Pass Details

Date: 11 May 2021
Orbit: 757 x 771 km, 98.5° (Epoch: 18 June)

Event Time Altitude Azimuth Distance (km) Brightness Sun altitude
Exits shadow 20:22:05 18° 143° (SE) 1,819 4.8 -12.6°
Maximum altitude 20:25:46 56° 70° (ENE) 905 3.7 -13.1°
Drops below altitude 10° 20:30:42 10° 354° (N) 2,299 6.8 -13.7°
Sets 20:33:03 0° 350° (N) 3,229 7.8 -13.9°
